STARLINK-34317, 64162

Orbit data source: Space-Track

STARLINK-34317, 64162 is a payload satellite owned by SpaceX/Seattle (US) in SSO that was launched on Tue, 27 May 2025 UTC via an FALCON 9 launch vehicle from the Air Force Western Test Range (AFWTR). Payload-class satellites include a variety of spacecraft equipped with specific instruments for various scientific and technological missions. These include communications satellites like Starlink; space stations such as the ISS; scientific satellites like the Hubble; Earth observation satellites from companies like Planet Labs, Umbra, and HawkEye 360; GPS; miniature CubeSats for education and research; and military/defense satellites.

Loading next visibility...
Identifier
64162, 2025-112S
Orbit
SSO
Country
Flag of USUS
Related business
Manufacturer
SpaceX/Seattle
Mission
Operational Commercial Communications
Bus & Motor
STARLINK V2MO, Unknown motor
Mass
575 kg wet, ~530 kg dry
Launch date (UTC)
2025-05-27 (1 year ago)
Launch vehicle
FALCON 9
Launch site
Air Force Western Test Range (AFWTR)
Object type
Payload
Rocket body
Debris
Shape & HBR
Box + 2 Pan, 17.7 m
Radar Cross Section
36.964 m², Large (>1 m²)

Expand to show TLE details & history
Last TLE update: 8 hours ago

TLE from 8 hours ago
0 STARLINK-34317
1 64162U 25112S   26145.38952450  .00003750  00000-0  26378-3 0  9998
2 64162  97.4461 196.8187 0002469 103.3471 256.8032 15.05656949 54850
Epoch: 2026-05-25T09:20Z
TLE epoch observation values (Epoch: 2026-05-25T09:20:54.916Z)
Latitude
-0.00001°
Longitude
173.61187°
Altitude
552.951 km
Speed
7.585 km/s
True Right ascension
13h 07m 16s
True Declination
0° 00' 00"
Sunlit
Object was in full shadow at epoch
Visualization orbit readout
Latitude
Unknown
Longitude
Unknown
Altitude
Unknown
Speed
Unknown
Apparent Right ascension
Unknown
Apparent Declination
Unknown
Sunlit
N/A
Visualization observer readout
Local Sidereal Time
02:49:20
Azimuth
Unknown
Elevation
Unknown
Doppler factor
Unknown
Orbital elements
Apogee altitude
548.186 km
Perigee altitude
544.767 km
Semi-major axis
6,924.614 km
Eccentricity
0.00025
Inclination
97.4461°
RAAN
196.8187°
Arg. of periapsis
103.3471°
True anomaly
256.77566°
Mean anomaly
256.8032°
Eccentric anomaly
256.78943°
Mean motion
3.7666 °/min
Orbital period
95.58 mins
BSTAR
0.00026378
Loading maneuver chart data...
Computing Atmospheric mass density...
Loading historical data...
Loading historical data...
Loading historical data...
Loading historical data...
Loading historical data...
Loading historical data...
Loading historical data...

Documentation

Showing up to 5 results
|